Location: Dana
(41.8364°N, 106.7042°W)
Time: 14:39:12
(UTC+00:00)

SR - Pass Details

Date: 16 May 2026
Orbit: 567 x 853 km, 66.7° (Epoch: 7 June)

Event Time Altitude Azimuth Distance (km) Brightness Sun altitude
Rises 15:20:17 0° 254° (WSW) 3,024 ? 38.0°
Reaches altitude 10° 15:23:07 10° 272° (W) 2,169 ? 38.5°
Maximum altitude 15:26:42 20° 318° (NW) 1,682 ? 39.2°
Drops below altitude 10° 15:30:30 10° 4° (N) 2,315 ? 39.9°
Sets 15:33:40 0° 22° (NNE) 3,299 ? 40.5°
